This is the latest recevied weather packets stored in our database for station/object KA8DUX-2. If no packets are shown the sender has not sent any weather packets the latest 10 day(s).
| Time | Temp. | Humidity | Pressure | Rain* | Wind** | Luminosity | Snow |
|---|---|---|---|---|---|---|---|
| 1777727785 | 4.44° C | 73% | 1018 hPa | 0 mm | - | 186 W/m² | - |
| 1777727481 | 4.44° C | 73% | 1017.9 hPa | 0 mm | - | 134 W/m² | - |
| 1777727179 | 3.89° C | 73% | 1018 hPa | 0 mm | - | 153 W/m² | - |
| 1777726876 | 3.89° C | 75% | 1018.1 hPa | 0 mm | - | 105 W/m² | - |
| 1777726572 | 3.89° C | 75% | 1018.2 hPa | 0 mm | - | 94 W/m² | - |
| 1777726270 | 3.89° C | 79% | 1017.9 hPa | 0 mm | - | 71 W/m² | - |
| 1777725966 | 3.33° C | 79% | 1018 hPa | 0 mm | - | 63 W/m² | - |
| 1777725663 | 3.33° C | 81% | 1017.9 hPa | 0 mm | - | 69 W/m² | - |
| 1777725362 | 2.78° C | 82% | 1018.2 hPa | 0 mm | - | 62 W/m² | - |
| 1777725058 | 2.78° C | 84% | 1018.1 hPa | 0 mm | - | 45 W/m² | - |
| 1777724755 | 2.78° C | 85% | 1018.1 hPa | 0 mm | - | 43 W/m² | - |
| 1777724452 | 2.22° C | 86% | 1017.8 hPa | 0 mm | - | 48 W/m² | - |
| 1777724149 | 2.22° C | 88% | 1018.1 hPa | 0 mm | - | 48 W/m² | - |
| 1777723847 | 1.67° C | 90% | 1018 hPa | 0 mm | - | 37 W/m² | - |
| 1777723543 | 0.56° C | 91% | 1018.1 hPa | 0 mm | - | 42 W/m² | - |
| 1777723240 | 0.56° C | 92% | 1018.1 hPa | 0 mm | - | 29 W/m² | - |
| 1777722938 | 0° C | 93% | 1017.9 hPa | 0 mm | - | 27 W/m² | - |
| 1777722634 | 0° C | 93% | 1018 hPa | 0 mm | - | 26 W/m² | - |
| 1777722330 | -0.56° C | 93% | 1017.9 hPa | 0 mm | - | 24 W/m² | - |
| 1777722027 | -0.56° C | 93% | 1017.9 hPa | 0 mm | - | 23 W/m² | - |
| 1777721725 | -0.56° C | 93% | 1017.9 hPa | 0 mm | - | 22 W/m² | - |
| 1777721424 | -1.11° C | 93% | 1017.8 hPa | 0 mm | - | 20 W/m² | - |
| 1777721121 | -1.11° C | 93% | 1017.9 hPa | 0 mm | - | 18 W/m² | - |
| 1777720818 | -1.11° C | 93% | 1017.6 hPa | 0 mm | - | 17 W/m² | - |
| 1777720515 | -1.67° C | 93% | 1017.8 hPa | 0 mm | - | 15 W/m² | - |
* Rain latest hour (hover to see other rain measurements)
** Current wind speed in m/s (hover to see current wind gust speed)